Garden City, KS

1:49 AM CST on January 16, 2018 (GMT -0600)
Garden City Regional

Weather History for KGCK - August, 2013

Change the Weather History Date:

Wednesday, August 7, 2013

  Actual Average Record
Temperature  
Mean Temperature 73 °F 78 °F  
Max Temperature 82 °F 91 °F 107 °F (1970)
Min Temperature 64 °F 65 °F 55 °F (1990)
Degree Days  
Heating Degree Days 0 0  
Month to date heating degree days 0 0  
Since 1 June heating degree days 12 17  
Since 1 July heating degree days 0 1  
Cooling Degree Days 8 13  
Month to date cooling degree days 89 91  
Year to date cooling degree days 1071 842  
Since 1 June cooling degree days 924 753  
Growing Degree Days 23 (Base 50)    
Moisture  
Dew Point 65 °F    
Average Humidity 76    
Maximum Humidity 93    
Minimum Humidity 58    
Precipitation  
Precipitation 0.50 in 0.09 in 1.24 in (2017)
Month to date precipitation 2.93 0.68  
Year to date precipitation 8.17 13.88  
Sea Level Pressure  
Sea Level Pressure 29.94 in    
Wind  
Wind Speed 12 mph (NE)    
Max Wind Speed 29 mph    
Max Gust Speed 37 mph    
Visibility 9 miles    
Events Rain , Thunderstorm    
T = Trace of Precipitation, MM = Missing Value Source: NWS Daily Summary

Daily Weather History Graph

Daily Weather History Graph

Search for Another Location

Airport or City:

Trip Planner

Search our weather history database for the weather conditions in past years. The results will help you decide how hot, cold, wet, or windy it might be!

Date:

Astronomy

Aug. 07, 2013 Rise Set
Actual Time 6:51 AM CDT 8:45 PM CDT
Civil Twilight 6:22 AM CDT 9:13 PM CDT
Nautical Twilight 5:47 AM CDT 9:48 PM CDT
Astronomical Twilight 5:10 AM CDT 10:25 PM CDT
Moon 7:39 AM CDT (8/7) 8:55 PM CDT (8/7)
Length of Visible Light 14h 50m
Length of Day
13h 53m
New Moon, 1% of the Moon is Illuminated
Aug 7
New Moon
Aug 14
First Quarter
Aug 20
Full
Aug 28
Last Quarter
Sep 5
New

Hourly Weather History & Observations

Time (CDT) Temp. Heat Index Dew Point Humidity Pressure Visibility Wind Dir Wind Speed Gust Speed Precip Events Conditions
12:54 AM 72.0 °F - 64.0 °F 76% 29.85 in 10.0 mi ENE 3.5 mph - N/A   Clear
1:54 AM 71.1 °F - 64.0 °F 78% 29.86 in 10.0 mi Calm Calm - N/A   Clear
2:54 AM 69.1 °F - 64.0 °F 84% 29.84 in 10.0 mi NW 5.8 mph - N/A   Clear
3:54 AM 68.0 °F - 63.0 °F 84% 29.83 in 10.0 mi NNW 5.8 mph - N/A   Clear
4:54 AM 66.9 °F - 64.0 °F 90% 29.86 in 9.0 mi North 10.4 mph - N/A   Clear
5:54 AM 66.0 °F - 61.0 °F 84% 29.89 in 10.0 mi NNE 24.2 mph 33.4 mph N/A   Clear
6:54 AM 64.9 °F - 61.0 °F 87% 29.89 in 10.0 mi NE 19.6 mph 26.5 mph N/A   Clear
7:54 AM 66.0 °F - 59.0 °F 78% 29.88 in 10.0 mi ENE 19.6 mph - N/A   Clear
8:54 AM 69.1 °F - 59.0 °F 70% 29.91 in 10.0 mi East 11.5 mph - N/A   Clear
9:54 AM 70.0 °F - 60.1 °F 71% 29.94 in 10.0 mi ENE 10.4 mph - N/A   Clear
10:54 AM 73.0 °F - 61.0 °F 66% 29.94 in 10.0 mi East 13.8 mph - N/A   Clear
11:54 AM 75.0 °F - 63.0 °F 66% 29.95 in 10.0 mi East 10.4 mph - N/A   Partly Cloudy
12:54 PM 77.0 °F - 64.9 °F 66% 29.94 in 10.0 mi ENE 10.4 mph - N/A   Mostly Cloudy
1:18 PM 75.2 °F - 64.4 °F 69% 30.05 in 10.0 mi NE 8.1 mph - N/A   Mostly Cloudy
1:54 PM 77.0 °F - 66.9 °F 71% 29.95 in 10.0 mi ENE 10.4 mph - N/A   Mostly Cloudy
2:54 PM 78.1 °F - 68.0 °F 71% 29.94 in 10.0 mi East 9.2 mph - N/A   Overcast
3:54 PM 78.1 °F - 68.0 °F 71% 29.93 in 10.0 mi ENE 12.7 mph - 0.00 in   Overcast
4:54 PM 80.1 °F 82.9 °F 69.1 °F 69% 29.91 in 10.0 mi East 13.8 mph - N/A   Scattered Clouds
5:10 PM 80.6 °F 83.9 °F 69.8 °F 70% 30.00 in 10.0 mi East 11.5 mph 20.7 mph N/A   Mostly Cloudy
5:27 PM 80.6 °F 83.9 °F 69.8 °F 70% 29.99 in 10.0 mi East 15.0 mph 18.4 mph N/A   Mostly Cloudy
5:54 PM 82.0 °F 84.1 °F 66.0 °F 58% 29.88 in 10.0 mi ESE 17.3 mph - N/A   Mostly Cloudy
6:54 PM 80.1 °F 82.1 °F 66.0 °F 62% 29.88 in 10.0 mi East 10.4 mph - N/A   Scattered Clouds
7:54 PM 78.1 °F - 66.0 °F 66% 29.89 in 10.0 mi East 10.4 mph - N/A   Clear
8:54 PM 75.0 °F - 68.0 °F 79% 29.90 in 10.0 mi East 6.9 mph - 0.00 in Rain Light Rain
9:54 PM 73.0 °F - 69.1 °F 87% 29.91 in 10.0 mi ENE 3.5 mph - 0.01 in Rain Light Rain
10:30 PM 73.4 °F - 69.8 °F 88% 30.03 in 4.0 mi NW 4.6 mph - 0.05 in Rain , Thunderstorm Light Thunderstorms and Rain
10:45 PM 71.6 °F - 69.8 °F 94% 30.05 in 4.0 mi West 6.9 mph - 0.08 in Rain Light Rain
10:54 PM 66.9 °F - 63.0 °F 87% 29.99 in 5.0 mi West 21.9 mph 36.8 mph 0.11 in Rain , Thunderstorm Rain
11:02 PM 64.4 °F - 62.6 °F 94% 30.06 in 4.0 mi West 17.3 mph 28.8 mph 0.04 in Rain , Thunderstorm Thunderstorms and Rain
11:15 PM 64.4 °F - 62.6 °F 94% 30.06 in 2.0 mi WNW 19.6 mph 25.3 mph 0.16 in Rain , Thunderstorm Heavy Thunderstorms and Rain
11:30 PM 64.4 °F - 62.6 °F 94% 30.06 in 4.0 mi WNW 17.3 mph 25.3 mph 0.23 in Rain , Thunderstorm Rain
11:54 PM 64.0 °F - 62.1 °F 93% 29.96 in 6.0 mi NW 11.5 mph - 0.28 in Rain , Thunderstorm Rain